Location: ????????
(60.4333°N, 46.4710°E)
Time: 19:11:23
(UTC+00:00)

CZ-4C R/B - Pass Details

Date: 25 November 2020
Orbit: 407 x 489 km, 97.7° (Epoch: 16 January)

Event Time Altitude Azimuth Distance (km) Brightness Sun altitude
Exits shadow 14:24:47 14° 15° (NNE) 1,465 5.2 -16.1°
Maximum altitude 14:27:53 80° 290° (WNW) 505 3.1 -16.5°
Drops below altitude 10° 14:31:31 10° 202° (SSW) 1,687 6.3 -16.9°
Sets 14:33:36 0° 202° (SSW) 2,565 7.2 -17.2°
